Regional Weather Roundup
Issued by NWS

Home | Current Version | Previous Version | Graphics & Text | Print | Product List | Glossary On
Versions: 1 2 3 4 5 6 7 8 9 10 11 12 13 14 15 16 17 18 19 20 21 22 23 24 25 26 27 28 29 30 31 32 33 34 35 36 37 38 39 40 41 42 43 44 45 46 47 48 49 50
000
ASUS44 KMEG 180310
RWRTN
TENNESSEE HOURLY STATE WEATHER ROUNDUP
NATIONAL WEATHER SERVICE MEMPHIS TN
900 PM CST SAT FEB 17 2018

TNZ002-004-019-021-049-052-054-088>092-180400-
WEST TENNESSEE

CITY           SKY/WX    TMP DP  RH WIND       PRES   REMARKS
MEMPHIS INTL   FAIR      45  41  86 N3        30.25R
NWS MEMPHIS      N/A     43 N/A N/A MISG        N/A
JACKSON        FAIR      43  41  93 N5        30.25
COVINGTON      CLOUDY    41  39  93 CALM      30.26R
UNION CITY     CLEAR     41  41 100 CALM      30.24R
BOLIVAR        CLOUDY    45  41  87 NW6G12    30.24R
PARIS          PTCLDY    39  37  93 CALM      30.23R
HUNTINGDON     CLOUDY    41  41 100 CALM      30.24R
LEXINGTON      CLOUDY    45  43  93 NW7       30.24R
SELMER         CLOUDY    45  43  93 VRB3      30.23R
SAVANNAH       CLOUDY    46  45  93 NW9       30.23R
$$

TNZ008-025-027-028-033-062-065-066-180400-
NORTH MIDDLE TENNESSEE

CITY           SKY/WX    TMP DP  RH WIND       PRES   REMARKS
NASHVILLE      CLOUDY    48  44  86 NW8       30.22R
PORTLAND       CLOUDY    45  43  93 VRB7      30.21R
CLARKSVILLE    FAIR      42  38  85 NW7       30.23R
SMYRNA         CLOUDY    47  45  93 NW8       30.23R
COOKEVILLE     CLOUDY    46  45  93 NW7       30.20R
GALLATIN       CLOUDY    46  43  87 W6G12     30.24R
CROSSVILLE     FOG       43  42  97 W12       30.18R VSB 1/4
$$

TNZ061-075-076-078-094-096-097-180400-
SOUTH MIDDLE TENNESSEE

CITY           SKY/WX    TMP DP  RH WIND       PRES   REMARKS
FAYETTEVILLE   CLOUDY    46  46 100 CALM      30.20S
TULLAHOMA      CLOUDY    46  45  93 NW10      30.20R
WINCHESTER     CLOUDY    46  45  93 NW5       30.21R
MCMINNVILLE    CLOUDY    46  45  93 CALM      30.21R
COLUMBIA       CLOUDY    46  46 100 NW9G15    30.20R
SHELBYVILLE    CLOUDY    46  45  93 W3        30.21R
$$

TNZ017-018-042-046-047-180400-
NORTHEAST TENNESSEE

CITY           SKY/WX    TMP DP  RH WIND       PRES   REMARKS
TRI CITIES     CLOUDY    48  48 100 SW8       30.14R
ELIZABETHTON   CLOUDY    48  48 100 W8        30.15R
$$

TNZ012-013-036-069-073-074-180400-
CENTRAL EAST TENNESSEE

CITY           SKY/WX    TMP DP  RH WIND       PRES   REMARKS
KNOXVILLE      CLOUDY    47  47 100 W8        30.17R
OAK RIDGE      CLOUDY    49  48  97 SW5       30.18R
DOWNTOWN KNOXV PTCLDY    48  48 100 CALM      30.17R
GATLINBURG     CLOUDY    50  48  93 W3        30.16R
MORRISTOWN     CLOUDY    45  45 100 NW5       30.16R
$$

TNZ083-085-099-180400-
SOUTHEAST TENNESSEE

CITY           SKY/WX    TMP DP  RH WIND       PRES   REMARKS
CHATTANOOGA    MOCLDY    52  47  83 VRB3      30.18R
$$

SKY/WX REPORTED AS FAIR MEANS FEW OR NO CLOUDS BELOW
12 THOUSAND FEET.





USA.gov is the U.S. government's official web portal to all federal, state and local government web resources and services.